TimeMST,TemperatureF,Dew PointF,Humidity,Sea Level PressureIn,VisibilityMPH,Wind Direction,Wind SpeedMPH,Gust SpeedMPH,PrecipitationIn,Events,Conditions,WindDirDegrees,DateUTC
12:15 AM,60.8,12.2,15,30.13,10.0,South,12.7,-,N/A,,Clear,180,2013-06-21 07:15:00
12:35 AM,62.6,10.4,13,30.13,10.0,South,12.7,-,N/A,,Clear,180,2013-06-21 07:35:00
12:55 AM,60.8,10.4,14,30.13,10.0,South,12.7,-,N/A,,Clear,180,2013-06-21 07:55:00
1:15 AM,59.0,10.4,15,30.14,10.0,South,11.5,-,N/A,,Clear,190,2013-06-21 08:15:00
1:35 AM,57.2,14.0,18,30.14,10.0,South,10.4,-,N/A,,Clear,190,2013-06-21 08:35:00
1:55 AM,59.0,14.0,17,30.14,10.0,South,11.5,-,N/A,,Clear,180,2013-06-21 08:55:00
2:15 AM,57.2,14.0,18,30.15,10.0,South,10.4,-,N/A,,Clear,180,2013-06-21 09:15:00
2:35 AM,57.2,14.0,18,30.15,10.0,South,10.4,-,N/A,,Clear,180,2013-06-21 09:35:00
2:55 AM,55.4,12.2,18,30.15,10.0,South,10.4,-,N/A,,Clear,180,2013-06-21 09:55:00
3:15 AM,57.2,14.0,18,30.15,10.0,South,11.5,-,N/A,,Clear,180,2013-06-21 10:15:00
3:35 AM,57.2,12.2,17,30.15,10.0,South,11.5,-,N/A,,Clear,180,2013-06-21 10:35:00
3:55 AM,57.2,14.0,18,30.15,10.0,South,11.5,-,N/A,,Clear,180,2013-06-21 10:55:00
4:15 AM,57.2,14.0,18,30.15,10.0,South,10.4,-,N/A,,Clear,190,2013-06-21 11:15:00
4:35 AM,57.2,14.0,18,30.16,10.0,South,11.5,-,N/A,,Clear,180,2013-06-21 11:35:00
4:55 AM,55.4,15.8,21,30.16,10.0,South,10.4,-,N/A,,Clear,180,2013-06-21 11:55:00
5:15 AM,55.4,15.8,21,30.17,10.0,South,9.2,-,N/A,,Clear,170,2013-06-21 12:15:00
5:35 AM,55.4,15.8,21,30.16,10.0,South,10.4,-,N/A,,Clear,180,2013-06-21 12:35:00
5:55 AM,57.2,17.6,21,30.17,10.0,South,9.2,-,N/A,,Clear,180,2013-06-21 12:55:00
6:15 AM,59.0,17.6,20,30.17,10.0,South,9.2,-,N/A,,Clear,180,2013-06-21 13:15:00
6:35 AM,64.4,19.4,18,30.17,10.0,South,9.2,-,N/A,,Clear,180,2013-06-21 13:35:00
6:55 AM,66.2,19.4,17,30.18,10.0,South,9.2,-,N/A,,Clear,180,2013-06-21 13:55:00
7:15 AM,68.0,21.2,17,30.19,10.0,South,9.2,-,N/A,,Clear,180,2013-06-21 14:15:00
7:35 AM,69.8,24.8,18,30.19,10.0,South,10.4,-,N/A,,Clear,190,2013-06-21 14:35:00
7:55 AM,71.6,26.6,19,30.19,10.0,SSW,9.2,-,N/A,,Clear,200,2013-06-21 14:55:00
8:15 AM,71.6,32.0,23,30.19,10.0,SSW,16.1,21.9,N/A,,Clear,210,2013-06-21 15:15:00
8:35 AM,73.4,32.0,22,30.19,10.0,SSW,20.7,27.6,N/A,,Clear,210,2013-06-21 15:35:00
8:55 AM,73.4,30.2,20,30.19,10.0,SSW,17.3,24.2,N/A,,Clear,210,2013-06-21 15:55:00
9:15 AM,75.2,28.4,18,30.18,10.0,South,19.6,24.2,N/A,,Clear,170,2013-06-21 16:15:00
9:35 AM,75.2,26.6,17,30.18,10.0,SSW,17.3,27.6,N/A,,Clear,210,2013-06-21 16:35:00
9:55 AM,75.2,24.8,15,30.18,10.0,SSW,18.4,24.2,N/A,,Clear,200,2013-06-21 16:55:00
10:15 AM,77.0,19.4,12,30.18,10.0,SW,21.9,27.6,N/A,,Clear,230,2013-06-21 17:15:00
10:35 AM,77.0,21.2,12,30.18,10.0,SSW,19.6,28.8,N/A,,Clear,210,2013-06-21 17:35:00
10:55 AM,78.8,23.0,13,30.18,10.0,SSW,17.3,29.9,N/A,,Clear,210,2013-06-21 17:55:00
11:15 AM,80.6,23.0,12,30.17,10.0,SSW,21.9,28.8,N/A,,Clear,200,2013-06-21 18:15:00
11:35 AM,80.6,21.2,11,30.17,10.0,SW,17.3,26.5,N/A,,Clear,220,2013-06-21 18:35:00
11:55 AM,80.6,19.4,10,30.16,10.0,South,17.3,29.9,N/A,,Partly Cloudy,190,2013-06-21 18:55:00
12:15 PM,80.6,17.6,10,30.15,10.0,South,21.9,29.9,N/A,,Clear,170,2013-06-21 19:15:00
12:35 PM,82.4,17.6,9,30.15,10.0,SW,21.9,31.1,N/A,,Clear,230,2013-06-21 19:35:00
12:55 PM,82.4,15.8,8,30.15,10.0,SSW,18.4,28.8,N/A,,Clear,210,2013-06-21 19:55:00
1:15 PM,82.4,17.6,9,30.15,10.0,South,21.9,31.1,N/A,,Clear,190,2013-06-21 20:15:00
1:35 PM,82.4,17.6,9,30.15,10.0,South,20.7,31.1,N/A,,Clear,190,2013-06-21 20:35:00
1:55 PM,82.4,19.4,10,30.15,10.0,SSW,24.2,31.1,N/A,,Clear,210,2013-06-21 20:55:00
2:15 PM,82.4,19.4,10,30.14,10.0,SSW,17.3,31.1,N/A,,Clear,210,2013-06-21 21:15:00
2:35 PM,80.6,17.6,10,30.14,10.0,SSW,20.7,26.5,N/A,,Clear,210,2013-06-21 21:35:00
2:55 PM,82.4,17.6,9,30.13,10.0,SW,25.3,31.1,N/A,,Clear,220,2013-06-21 21:55:00
3:15 PM,82.4,17.6,9,30.12,10.0,SSW,19.6,31.1,N/A,,Clear,200,2013-06-21 22:15:00
3:35 PM,80.6,17.6,10,30.13,10.0,WSW,16.1,-,N/A,,Clear,240,2013-06-21 22:35:00
3:55 PM,80.6,15.8,9,30.12,10.0,SW,18.4,27.6,N/A,,Clear,230,2013-06-21 22:55:00
4:15 PM,80.6,15.8,9,30.12,10.0,SW,19.6,26.5,N/A,,Clear,230,2013-06-21 23:15:00
4:35 PM,80.6,15.8,9,30.11,10.0,SW,20.7,27.6,N/A,,Clear,220,2013-06-21 23:35:00
4:55 PM,80.6,14.0,8,30.11,10.0,WSW,20.7,31.1,N/A,,Clear,240,2013-06-21 23:55:00
5:15 PM,80.6,14.0,8,30.11,10.0,SW,24.2,27.6,N/A,,Clear,220,2013-06-22 00:15:00
5:55 PM,77.0,12.2,9,30.11,10.0,SSW,18.4,25.3,N/A,,Clear,210,2013-06-22 00:55:00
6:15 PM,77.0,12.2,9,30.12,10.0,SW,19.6,-,N/A,,Clear,220,2013-06-22 01:15:00
6:35 PM,75.2,12.2,9,30.12,10.0,SSW,13.8,18.4,N/A,,Clear,210,2013-06-22 01:35:00
6:55 PM,75.2,10.4,8,30.12,10.0,SW,12.7,-,N/A,,Clear,220,2013-06-22 01:55:00
7:15 PM,73.4,10.4,9,30.12,10.0,SW,12.7,21.9,N/A,,Clear,220,2013-06-22 02:15:00
7:35 PM,71.6,12.2,10,30.13,10.0,SW,12.7,-,N/A,,Clear,230,2013-06-22 02:35:00
7:55 PM,69.8,14.0,12,30.13,10.0,SW,10.4,-,N/A,,Clear,230,2013-06-22 02:55:00
8:15 PM,68.0,14.0,12,30.13,10.0,SSW,4.6,-,N/A,,Clear,210,2013-06-22 03:15:00
8:35 PM,64.4,14.0,14,30.14,10.0,SE,4.6,-,N/A,,Clear,130,2013-06-22 03:35:00
8:55 PM,64.4,14.0,14,30.15,10.0,SE,6.9,-,N/A,,Clear,140,2013-06-22 03:55:00
9:15 PM,64.4,14.0,14,30.15,10.0,SSE,6.9,-,N/A,,Clear,150,2013-06-22 04:15:00
9:35 PM,60.8,14.0,16,30.15,10.0,South,9.2,-,N/A,,Clear,170,2013-06-22 04:35:00
9:55 PM,62.6,15.8,16,30.15,10.0,South,10.4,-,N/A,,Clear,170,2013-06-22 04:55:00
10:15 PM,62.6,15.8,16,30.15,10.0,South,10.4,-,N/A,,Clear,170,2013-06-22 05:15:00
10:35 PM,60.8,15.8,17,30.14,10.0,South,9.2,-,N/A,,Clear,170,2013-06-22 05:35:00
10:55 PM,59.0,15.8,19,30.14,10.0,South,9.2,-,N/A,,Clear,170,2013-06-22 05:55:00
11:15 PM,59.0,15.8,19,30.14,10.0,South,9.2,-,N/A,,Clear,170,2013-06-22 06:15:00
11:35 PM,59.0,15.8,19,30.14,10.0,South,9.2,-,N/A,,Clear,170,2013-06-22 06:35:00
11:55 PM,59.0,15.8,19,30.14,10.0,South,11.5,-,N/A,,Clear,170,2013-06-22 06:55:00